XW-2D
1 40907U 15049J 16189.67710206 .00001103 00000-0 64786-4 0 9993
2 40907 97.4486 196.1820 0014114 332.1462 92.4992 15.13692465 44105
XW-2F
1 40910U 15049M 16189.76774207 .00001055 00000-0 61316-4 0 9990
2 40910 97.4509 196.4793 0015439 330.4354 78.4248 15.14168193 44014
XW-2B
1 40911U 15049N 16189.82007150 .00001080 00000-0 63511-4 0 9991
2 40911 97.4537 196.5065 0014303 332.1404 152.5910 15.13675343 44023
DCBB
1 40912U 15049P 16189.82251248 .00001545 00000-0 83422-4 0 9990
2 40912 97.4518 197.3636 0015536 325.4139 160.6544 15.16121137 44084
TW-1C
1 40926U 15051B 16189.83486639 .00004957 00000-0 13991-3 0 9996
2 40926 97.2731 226.5289 0013306 343.1647 71.0951 15.36759252 43934
TW-1A
1 40928U 15051D 16189.77070005 .00002340 00000-0 74674-4 0 9997
2 40928 97.2679 225.5195 0013938 1.4161 110.9188 15.33409174 43878
IO-86
1 40931U 15052B 16189.20889783 .00000718 00000-0 11071-4 0 9990
2 40931 5.9981 172.3767 0013487 40.6861 319.4346 14.76467898 41894
GomX-3
1 40949U 98067HA 16189.79705071 .00037494 00000-0 19093-3 0 9999
2 40949 51.6304 287.5287 0004739 312.2451 47.8149 15.81021132 43326
LQSat
1 40958U 15057A 16189.75993278 .00000045 00000-0 14835-4 0 9993
2 40958 98.0140 264.3840 0019705 88.3009 272.0454 14.72877465 40411
AO-85
1 40967U 15058D 16189.32662267 -.00000006 00000-0 18317-4 0 01818
2 40967 064.7753 184.7636 0201870 199.1432 160.1986 14.75052896026244
ATHENOXAT-1
1 41168U 15077C 16189.23880161 .00001814 00000-0 68531-4 0 9995
2 41168 14.9906 166.6229 0012654 278.8858 92.1454 15.10038951 30794
ChubuSat-2
1 41338U 16012B 16189.29091752 .00000317 00000-0 18293-4 0 9997
2 41338 31.0029 142.2168 0014240 245.8711 114.0436 14.99408267 21179
ChubuSat-3
1 41339U 16012C 16189.26893280 .00000328 00000-0 19043-4 0 9997
2 41339 31.0080 142.0844 0014113 251.7180 108.1919 14.99637304 21144
Horyu-4
1 41340U 16012D 16189.16840207 .00000502 00000-0 32477-4 0 9999
2 41340 31.0048 142.1809 0014490 255.7149 104.1875 15.00055351 21156
OUFTI-1
1 41458U 16025C 16189.21443285 .00002366 00000-0 13694-3 0 9993
2 41458 98.2118 200.8526 0176308 1.5419 358.6310 15.01192856 10781
e-st@r-II
1 41459U 16025D 16189.14765029 .00002143 00000-0 12470-3 0 9993
2 41459 98.2104 200.7822 0176034 1.7868 358.3940 15.01175645 10773
AAUSAT4
1 41460U 16025E 16189.80908123 .00002747 00000-0 15815-3 0 9998
2 41460 98.2076 201.4912 0174853 359.4325 0.6643 15.01381020 10873
MinXSS
1 41474U 98067HU 16189.84964301 .00018576 00000-0 25087-3 0 9992
2 41474 51.6455 314.1833 0001924 220.5383 214.1778 15.57811478 8151
CADRE
1 41475U 98067HV 16189.89661205 .00025507 00000-0 32843-3 0 9995
2 41475 51.6424 313.7181 0002506 250.0643 195.5757 15.58869676 8167
STMSat 1
1 41476U 98067HW 16189.59461804 .00016965 00000-0 22994-3 0 9990
2 41476 51.6436 315.4488 0001413 215.6894 231.5020 15.57788658 8029
NODES 1
1 41477U 98067HX 16189.54022088 .00012185 00000-0 17118-3 0 9995
2 41477 51.6449 315.8605 0001993 202.1501 235.0210 15.57137188 8013
NODES 2
1 41478U 98067HY 16189.61225881 .00012084 00000-0 17003-3 0 9991
2 41478 51.6445 315.5043 0001878 201.0573 275.0882 15.57103838 8027
NuSat1-LUSEX
1 41557U 16033B 16189.77640782 .00001569 00000-0 64913-4 0 9999
2 41557 97.4969 262.9589 0015862 136.5375 340.0422 15.25388213 5896
NuSat2
1 41558U 16033C 16189.78006986 .00001637 00000-0 67881-4 0 9996
2 41558 97.4995 262.9665 0015558 134.9179 342.2057 15.25248370 5894
Lapan A3
1 41603U 16040E 16189.83961145 .00000292 00000-0 17227-4 0 9993
2 41603 97.5096 248.9097 0014007 187.5585 307.2017 15.19053076 2371
Swayam
1 41607U 16040J 16189.15754330 .00001559 00000-0 77813-4 0 9992
2 41607 97.5072 248.2187 0013991 195.9340 164.1457 15.18940776 2194
/EX
1
0
SB KEPS @ AMSAT $ORB16182.N
2Line Orbital Elements 16182.AMSAT
HR AMSAT ORBITAL ELEMENTS FOR AMATEUR SATELLITES IN NASA FORMAT
FROM WA5QGD FORT WORTH,TX June 30, 2016
BID: ORB16182.N
DECODE 2-LINE ELSETS WITH THE FOLLOWING KEY:
1 AAAAAU 00 0 0 BBBBB.BBBBBBBB .CCCCCCCC 00000-0 00000-0 0 DDDZ
2 AAAAA EEE.EEEE FFF.FFFF GGGGGGG HHH.HHHH III.IIII JJ.JJJJJJJJKKKKKZ
KEY: A-CATALOGNUM B-EPOCHTIME C-DECAY D-ELSETNUM E-INCLINATION F-RAAN
G-ECCENTRICITY H-ARGPERIGEE I-MNANOM J-MNMOTION K-ORBITNUM Z-CHECKSUM
TO ALL RADIO AMATEURS BT
AO-07
1 07530U 74089B 16182.55594553 -.00000028 00000-0 10138-3 0 9999
2 07530 101.5752 152.9868 0011571 286.2348 183.6309 12.53621946904793
FO-29
1 24278U 96046B 16182.33322265 -.00000028 00000-0 68379-5 0 9991
2 24278 98.5855 105.8305 0350580 168.4381 192.5080 13.53068660981291
RS-22
1 27939U 03042A 16182.84435870 .00000215 00000-0 47217-4 0 9999
2 27939 97.8894 333.9933 0011810 262.5243 97.4627 14.66416683681820
HO-68
1 36122U 09072B 16182.66336307 -.00000059 00000-0 -43517-4 0 9994
2 36122 100.1404 217.9744 0007369 328.3357 31.7310 13.16334711314380
AO-73
1 39444U 13066AE 16182.80794097 .00000289 00000-0 42954-4 0 9999
2 39444 97.6800 235.7211 0058180 337.8173 22.0523 14.81087058139594
EO-79
1 40025U 14033R 16182.70955794 .00000297 00000-0 38380-4 0 9990
2 40025 97.9275 88.1665 0013383 26.0438 334.1449 14.88032301110210
XW-2A
1 40903U 15049E 16182.72826634 .00002495 00000-0 72057-4 0 9996
2 40903 97.4454 198.0424 0017739 88.2235 332.3997 15.36507415 43633
XW-2C
1 40906U 15049H 16182.61246091 .00001177 00000-0 68948-4 0 9990
2 40906 97.4523 189.3988 0015641 358.0636 118.4426 15.13636664 43032
LILACSAT-2
1 40908U 15049K 16182.56680785 .00000768 00000-0 47591-4 0 9994
2 40908 97.4579 189.2419 0016434 350.8924 125.9082 15.12572683 43001
XW-2E
1 40909U 15049L 16182.74301421 .00001753 00000-0 98227-4 0 9999
2 40909 97.4531 189.8016 0014628 0.5689 52.3231 15.14620003 43077
UO-11
1 14781U 84021B 16182.19314641 .00000111 00000-0 20079-4 0 9998
2 14781 97.7483 233.7989 0007034 272.7932 87.2477 14.82758812738186
LO-19
1 20442U 90005G 16182.40355946 -.00000015 00000-0 10612-4 0 9991
2 20442 98.5438 117.1617 0012932 105.4500 254.8114 14.32820772381246
AO-27
1 22825U 93061C 16182.86942381 -.00000013 00000-0 12618-4 0 9994
2 22825 98.7602 139.2011 0007283 279.9541 80.0819 14.29959661187191
IO-26
1 22826U 93061D 16182.49101550 .00000001 00000-0 17933-4 0 9990
2 22826 98.7545 138.9429 0007775 270.8839 89.1452 14.30284643187302
GO-32
1 25397U 98043D 16182.42445956 -.00000014 00000-0 12620-4 0 9998
2 25397 98.5676 127.0230 0000779 9.7513 350.3681 14.23597061933742
NO-44
1 26931U 01043C 16182.55274860 -.00000033 00000-0 19032-4 0 9990
2 26931 67.0519 278.4259 0006561 260.0295 100.0065 14.30413282770059
SO-50
1 27607U 02058C 16182.18131887 -.00000005 00000-0 20241-4 0 9991
2 27607 64.5553 121.1424 0066834 214.2589 145.4194 14.75171298727183
CO-55
1 27844U 03031E 16182.89266590 .00000063 00000-0 48523-4 0 9990
2 27844 98.6920 190.9820 0008485 285.6859 74.3382 14.21958424674394
CO-57
1 27848U 03031J 16181.95397084 .00000050 00000-0 42607-4 0 9996
2 27848 098.7015 190.1550 0008505 298.3395 061.6924 14.21583813674123
CO-65
1 32785U 08021C 16182.82362868 .00000284 00000-0 36931-4 0 9997
2 32785 97.6018 216.4725 0011726 249.4436 110.5523 14.87587435442654
